Tracking 29892 objects as of 21-Nov-2024
HD Live streaming from Space Station
objects crossing your sky now

OPS 4682 DEB

Track OPS 4682 DEB now!
10-day predictions


NORAD ID: 38360
Int'l Code: 1965-027BM
Perigee: 1,243.1 km
Apogee: 1,292.0 km
Inclination: 90.2 °
Period: 110.7 minutes
Semi major axis: 7638 km
RCS: 0.0165 m2 (small)
Launch date: April 3, 1965
Source: United States (US)
Launch site: AIR FORCE WESTERN TEST RANGE (AFWTR)

Note: This is SATELLITE DEBRIS
Your satellite tracking list
Your tracking list is empty




NASA's NSSDC Master Catalog

Two Line Element Set (TLE):
1 38360U 65027BM  24325.84150078  .00001180  00000-0  38664-2 0  9998
2 38360  90.2382 352.2483 0032005 307.3403  52.4805 13.00423055619916
Source of the keplerian elements: AFSPC